�������l�o���
Date,Time,MP-1(��Sv/h),MP-2(��Sv/h),MP-3(��Sv/h),MP-4(��Sv/h),MP-5(��Sv/h),MP-6(��Sv/h),MP-7(��Sv/h),MP-8(��Sv/h),����,����(m/s),���J
2017/10/07,00:00,0.930,1.476,0.965,1.780,1.223,0.503,0.925,0.855,��,4.0,�L
2017/10/07,00:10,0.930,1.478,0.965,1.778,1.223,0.503,0.926,0.854,��,4.3,�L
2017/10/07,00:20,0.933,1.478,0.965,1.782,1.222,0.505,0.927,0.855,��,4.5,�L
2017/10/07,00:30,0.933,1.478,0.965,1.778,1.225,0.506,0.927,0.855,��쓌,4.7,�L
2017/10/07,00:40,0.934,1.478,0.965,1.777,1.222,0.505,0.929,0.855,��쓌,3.7,�L
2017/10/07,00:50,0.933,1.479,0.966,1.778,1.226,0.504,0.928,0.854,��쓌,4.1,�L
2017/10/07,01:00,0.935,1.480,0.964,1.779,1.225,0.505,0.928,0.857,��,3.7,�L
2017/10/07,01:10,0.932,1.480,0.965,1.780,1.224,0.503,0.926,0.854,��,4.1,�L
2017/10/07,01:20,0.935,1.478,0.963,1.778,1.225,0.505,0.927,0.857,��,4.0,�L
2017/10/07,01:30,0.933,1.479,0.965,1.778,1.225,0.504,0.928,0.856,��,4.0,�L
2017/10/07,01:40,0.934,1.477,0.965,1.776,1.223,0.503,0.930,0.857,��쓌,4.5,�L
2017/10/07,01:50,0.934,1.479,0.965,1.777,1.224,0.504,0.929,0.856,��,5.6,�L
2017/10/07,02:00,0.931,1.475,0.963,1.778,1.225,0.504,0.929,0.858,��,5.5,�L
2017/10/07,02:10,0.933,1.474,0.965,1.776,1.219,0.506,0.927,0.857,��,4.6,�L
2017/10/07,02:20,0.931,1.475,0.963,1.773,1.219,0.505,0.928,0.855,��,4.6,�L
2017/10/07,02:30,0.931,1.473,0.961,1.769,1.217,0.506,0.926,0.855,��,4.4,�L
2017/10/07,02:40,0.930,1.469,0.960,1.767,1.214,0.504,0.925,0.854,��쓌,2.9,�L
2017/10/07,02:50,0.925,1.461,0.960,1.761,1.211,0.503,0.920,0.852,��쐼,2.6,�L
2017/10/07,03:00,0.919,1.457,0.954,1.755,1.202,0.503,0.918,0.848,��,2.8,�L
2017/10/07,03:10,0.919,1.455,0.956,1.751,1.204,0.500,0.921,0.848,��,4.9,�L
2017/10/07,03:20,0.917,1.442,0.950,1.743,1.199,0.500,0.918,0.848,��쓌,8.4,�L
2017/10/07,03:30,0.914,1.442,0.951,1.741,1.193,0.497,0.918,0.844,��쓌,9.1,�L
2017/10/07,03:40,0.913,1.438,0.950,1.739,1.194,0.500,0.917,0.846,��,7.0,�L
2017/10/07,03:50,0.913,1.438,0.947,1.737,1.196,0.499,0.918,0.847,��,7.2,�L
2017/10/07,04:00,0.913,1.440,0.945,1.737,1.193,0.499,0.917,0.844,��,6.9,�L
2017/10/07,04:10,0.911,1.434,0.940,1.733,1.190,0.497,0.915,0.843,��,7.1,�L
2017/10/07,04:20,0.909,1.432,0.940,1.727,1.186,0.496,0.913,0.841,��,6.1,�L
2017/10/07,04:30,0.906,1.429,0.941,1.726,1.185,0.495,0.912,0.841,��쓌,5.9,�L
2017/10/07,04:40,0.901,1.422,0.935,1.712,1.175,0.493,0.908,0.840,��쓌,6.7,�L
2017/10/07,04:50,0.901,1.418,0.937,1.715,1.172,0.492,0.908,0.838,��쓌,6.6,�L
2017/10/07,05:00,0.902,1.418,0.936,1.712,1.174,0.495,0.909,0.838,��쓌,4.9,�L
2017/10/07,05:10,0.905,1.421,0.937,1.713,1.175,0.494,0.911,0.839,�쓌,3.8,�L
2017/10/07,05:20,0.904,1.421,0.936,1.715,1.174,0.494,0.908,0.840,�쓌,2.5,�L
2017/10/07,05:30,0.906,1.419,0.938,1.714,1.174,0.496,0.909,0.840,�쓌,3.4,�L
2017/10/07,05:40,0.904,1.424,0.937,1.715,1.179,0.496,0.910,0.840,�쓌,2.8,�L
2017/10/07,05:50,0.905,1.428,0.937,1.719,1.178,0.497,0.908,0.841,���쓌,2.0,�L
2017/10/07,06:00,0.909,1.425,0.940,1.717,1.181,0.496,0.909,0.842,�쓌,1.7,�L
2017/10/07,06:10,0.911,1.429,0.937,1.722,1.182,0.496,0.910,0.841,���쓌,1.5,�L
2017/10/07,06:20,0.909,1.434,0.940,1.721,1.179,0.497,0.911,0.843,���쓌,2.0,�L
2017/10/07,06:30,0.911,1.432,0.937,1.721,1.181,0.498,0.910,0.843,���쓌,2.0,�L
2017/10/07,06:40,0.907,1.431,0.936,1.717,1.177,0.498,0.907,0.842,���쓌,5.5,�L
2017/10/07,06:50,0.908,1.427,0.937,1.715,1.178,0.498,0.910,0.841,�쓌,7.4,�L
2017/10/07,07:00,0.908,1.426,0.935,1.709,1.173,0.498,0.909,0.840,�쓌,5.7,�L
2017/10/07,07:10,0.906,1.422,0.934,1.708,1.172,0.496,0.909,0.840,�쓌,4.2,�L
2017/10/07,07:20,0.904,1.420,0.933,1.708,1.170,0.496,0.907,0.838,�쓌,3.9,�L
2017/10/07,07:30,0.903,1.418,0.935,1.707,1.169,0.497,0.906,0.836,�쓌,2.5,�L
2017/10/07,07:40,0.906,1.416,0.933,1.708,1.169,0.496,0.907,0.839,�쓌,2.6,�L
2017/10/07,07:50,0.906,1.418,0.933,1.711,1.171,0.497,0.909,0.839,�쓌,1.4,�L
2017/10/07,08:00,0.906,1.422,0.936,1.712,1.172,0.496,0.909,0.838,��,2.0,�L
2017/10/07,08:10,0.904,1.421,0.934,1.710,1.171,0.498,0.909,0.839,�쓌,2.3,�L
2017/10/07,08:20,0.903,1.419,0.931,1.709,1.170,0.495,0.907,0.838,�쓌,2.0,�L
2017/10/07,08:30,0.904,1.418,0.929,1.707,1.166,0.496,0.905,0.838,�쓌,3.1,�L
2017/10/07,08:40,0.900,1.411,0.927,1.702,1.161,0.493,0.904,0.837,�쓌,1.7,�L
2017/10/07,08:50,0.900,1.413,0.926,1.703,1.161,0.494,0.905,0.836,��쓌,2.3,�L
2017/10/07,09:00,0.901,1.407,0.927,1.701,1.162,0.492,0.904,0.835,���쓌,1.7,�L
2017/10/07,09:10,0.898,1.411,0.924,1.698,1.157,0.492,0.902,0.835,�쓌,1.2,�L
2017/10/07,09:20,0.899,1.404,0.926,1.696,1.157,0.491,0.901,0.836,���쓌,0.8,�L
2017/10/07,09:30,0.897,1.407,0.925,1.697,1.159,0.493,0.900,0.835,���쓌,0.6,�L
2017/10/07,09:40,0.898,1.406,0.925,1.697,1.155,0.494,0.898,0.837,-,CALM,�L
2017/10/07,09:50,0.901,1.411,0.928,1.699,1.158,0.493,0.900,0.836,�k�k��,1.2,�L
2017/10/07,10:00,0.900,1.415,0.926,1.698,1.156,0.493,0.898,0.837,�k�k��,0.6,�L
2017/10/07,10:10,0.902,1.409,0.927,1.699,1.157,0.494,0.901,0.838,-,CALM,�L
2017/10/07,10:20,0.902,1.410,0.926,1.701,1.159,0.494,0.902,0.836,�k�k��,0.9,�L
2017/10/07,10:30,0.902,1.409,0.927,1.702,1.158,0.495,0.902,0.836,�k��,1.2,�L
2017/10/07,10:40,0.903,1.413,0.925,1.701,1.159,0.493,0.903,0.837,�k,0.9,�L
2017/10/07,10:50,0.902,1.412,0.929,1.703,1.159,0.492,0.903,0.838,�k��,0.8,�L
2017/10/07,11:00,0.903,1.411,0.925,1.703,1.161,0.494,0.904,0.837,��,0.8,�L
2017/10/07,11:10,0.903,1.417,0.927,1.706,1.161,0.495,0.907,0.838,�k��,1.7,��
2017/10/07,11:20,0.903,1.418,0.928,1.709,1.164,0.494,0.906,0.837,���k��,1.9,��
2017/10/07,11:30,0.907,1.420,0.931,1.708,1.169,0.495,0.906,0.840,�k��,2.2,��
2017/10/07,11:40,0.906,1.423,0.928,1.711,1.167,0.496,0.908,0.841,�k��,2.2,�L
2017/10/07,11:50,0.904,1.423,0.928,1.711,1.165,0.497,0.908,0.842,�k�k��,2.3,�L
2017/10/07,12:00,0.905,1.420,0.931,1.714,1.166,0.494,0.909,0.840,�k�k��,1.9,�L
2017/10/07,12:10,0.905,1.423,0.927,1.712,1.170,0.495,0.911,0.840,�k�k��,2.2,�L
2017/10/07,12:20,0.907,1.423,0.928,1.714,1.169,0.493,0.911,0.841,�k�k��,2.3,�L
2017/10/07,12:30,0.905,1.425,0.932,1.714,1.170,0.493,0.912,0.841,�k�k��,3.0,�L
2017/10/07,12:40,0.907,1.425,0.928,1.716,1.169,0.494,0.908,0.839,�k�k��,3.3,�L
2017/10/07,12:50,0.906,1.425,0.926,1.714,1.171,0.495,0.909,0.839,�k�k��,3.7,�L
2017/10/07,13:00,0.906,1.429,0.930,1.715,1.171,0.494,0.910,0.841,�k,3.6,�L
2017/10/07,13:10,0.907,1.426,0.932,1.717,1.173,0.496,0.908,0.840,�k�k��,3.4,��
2017/10/07,13:20,0.908,1.428,0.932,1.717,1.171,0.496,0.911,0.841,�k,3.1,��
2017/10/07,13:30,0.908,1.427,0.931,1.717,1.172,0.496,0.912,0.841,�k,3.0,��
2017/10/07,13:40,0.909,1.428,0.935,1.721,1.179,0.495,0.910,0.843,�k�k��,2.3,��
2017/10/07,13:50,0.907,1.429,0.935,1.718,1.184,0.496,0.912,0.844,�k��,2.6,��
2017/10/07,14:00,0.908,1.429,0.931,1.720,1.177,0.498,0.911,0.844,�k��,3.5,��
2017/10/07,14:10,0.909,1.427,0.931,1.724,1.179,0.496,0.912,0.844,�k��,2.3,��
2017/10/07,14:20,0.911,1.431,0.931,1.723,1.177,0.495,0.913,0.844,�k�k��,2.6,��
2017/10/07,14:30,0.912,1.430,0.931,1.722,1.178,0.496,0.914,0.844,�k�k��,3.0,��
2017/10/07,14:40,0.911,1.432,0.933,1.724,1.177,0.497,0.916,0.845,�k�k��,2.3,��
2017/10/07,14:50,0.911,1.429,0.931,1.724,1.180,0.495,0.915,0.843,�k��,2.6,��
2017/10/07,15:00,0.910,1.434,0.933,1.725,1.180,0.498,0.915,0.843,�k�k��,2.9,��
2017/10/07,15:10,0.914,1.433,0.933,1.723,1.178,0.497,0.915,0.843,�k,4.1,��
2017/10/07,15:20,0.910,1.434,0.933,1.726,1.179,0.496,0.914,0.844,�k�k��,4.9,��
2017/10/07,15:30,0.911,1.431,0.932,1.724,1.177,0.496,0.914,0.843,�k,6.0,��
2017/10/07,15:40,0.911,1.431,0.934,1.724,1.178,0.496,0.915,0.843,�k,5.0,��
2017/10/07,15:50,0.910,1.432,0.933,1.726,1.179,0.495,0.916,0.843,�k�k��,4.8,�L
2017/10/07,16:00,0.912,1.433,0.933,1.726,1.181,0.496,0.915,0.841,�k�k��,5.1,�L
2017/10/07,16:10,0.911,1.436,0.931,1.726,1.177,0.497,0.913,0.843,�k�k��,5.2,��
2017/10/07,16:20,0.910,1.436,0.935,1.726,1.181,0.495,0.914,0.843,�k�k��,5.2,�L
2017/10/07,16:30,0.912,1.438,0.934,1.728,1.180,0.497,0.914,0.843,�k�k��,5.3,�L
2017/10/07,16:40,0.909,1.436,0.935,1.729,1.181,0.496,0.914,0.844,�k�k��,5.5,��
2017/10/07,16:50,0.911,1.436,0.937,1.728,1.181,0.497,0.914,0.844,�k,5.1,��
2017/10/07,17:00,0.910,1.437,0.935,1.727,1.184,0.498,0.915,0.846,�k,4.8,��
2017/10/07,17:10,0.911,1.438,0.935,1.727,1.182,0.496,0.915,0.844,�k,5.0,��
2017/10/07,17:20,0.912,1.438,0.938,1.728,1.182,0.497,0.916,0.845,�k,4.6,��
2017/10/07,17:30,0.910,1.440,0.937,1.726,1.183,0.496,0.916,0.846,�k,4.5,�L
2017/10/07,17:40,0.912,1.440,0.937,1.727,1.185,0.497,0.915,0.846,�k,4.4,�L
2017/10/07,17:50,0.912,1.441,0.935,1.728,1.185,0.496,0.915,0.846,�k,4.2,�L
2017/10/07,18:00,0.912,1.441,0.939,1.730,1.184,0.494,0.915,0.847,�k�k��,3.9,�L
2017/10/07,18:10,0.913,1.441,0.936,1.728,1.185,0.497,0.915,0.848,�k�k��,3.9,��
2017/10/07,18:20,0.913,1.440,0.936,1.729,1.186,0.497,0.915,0.847,�k�k��,4.1,��
2017/10/07,18:30,0.914,1.440,0.938,1.730,1.185,0.498,0.913,0.848,�k��,4.2,��
2017/10/07,18:40,0.913,1.440,0.936,1.729,1.187,0.500,0.914,0.847,�k�k��,4.9,��
2017/10/07,18:50,0.913,1.441,0.938,1.730,1.188,0.499,0.914,0.846,�k�k��,4.6,��
2017/10/07,19:00,0.913,1.441,0.938,1.732,1.185,0.498,0.913,0.846,�k�k��,4.6,��
2017/10/07,19:10,0.914,1.442,0.938,1.731,1.187,0.499,0.917,0.848,�k�k��,5.0,��
2017/10/07,19:20,0.914,1.441,0.937,1.728,1.188,0.498,0.916,0.848,�k��,4.1,��
2017/10/07,19:30,0.914,1.439,0.939,1.730,1.188,0.498,0.915,0.848,�k�k��,4.9,��
2017/10/07,19:40,0.912,1.439,0.938,1.729,1.185,0.499,0.916,0.848,�k�k��,4.8,��
2017/10/07,19:50,0.915,1.439,0.937,1.727,1.187,0.498,0.917,0.848,�k��,4.4,��
2017/10/07,20:00,0.913,1.439,0.938,1.730,1.189,0.499,0.917,0.847,�k��,4.5,��
2017/10/07,20:10,0.914,1.441,0.937,1.729,1.187,0.499,0.918,0.847,�k��,5.2,��
2017/10/07,20:20,0.917,1.442,0.939,1.729,1.188,0.500,0.917,0.848,�k�k��,4.6,��
2017/10/07,20:30,0.914,1.442,0.935,1.730,1.186,0.499,0.918,0.846,�k�k��,4.4,��
2017/10/07,20:40,0.915,1.443,0.937,1.729,1.187,0.498,0.918,0.847,�k�k��,5.0,��
2017/10/07,20:50,0.914,1.442,0.940,1.730,1.191,0.500,0.917,0.849,�k,4.7,��
2017/10/07,21:00,0.914,1.442,0.936,1.727,1.185,0.500,0.919,0.848,�k,5.0,��
2017/10/07,21:10,0.913,1.440,0.936,1.732,1.188,0.499,0.919,0.847,�k�k��,6.3,��
2017/10/07,21:20,0.914,1.442,0.937,1.730,1.188,0.500,0.917,0.849,�k,7.6,��
2017/10/07,21:30,0.912,1.439,0.938,1.731,1.191,0.497,0.916,0.848,�k�k��,6.4,��
2017/10/07,21:40,0.915,1.442,0.939,1.732,1.186,0.500,0.917,0.848,�k�k��,6.7,��
2017/10/07,21:50,0.913,1.438,0.936,1.730,1.189,0.498,0.918,0.848,�k,6.7,��
2017/10/07,22:00,0.914,1.442,0.938,1.729,1.187,0.498,0.918,0.847,�k�k��,6.2,��
2017/10/07,22:10,0.916,1.439,0.938,1.729,1.190,0.498,0.918,0.848,�k�k��,5.8,��
2017/10/07,22:20,0.912,1.442,0.939,1.732,1.188,0.499,0.918,0.848,�k�k��,6.0,��
2017/10/07,22:30,0.912,1.438,0.939,1.731,1.190,0.500,0.917,0.847,�k�k��,6.5,��
2017/10/07,22:40,0.914,1.439,0.937,1.728,1.190,0.498,0.916,0.848,�k,5.3,��
2017/10/07,22:50,0.914,1.443,0.938,1.732,1.188,0.499,0.917,0.849,�k,3.5,��
2017/10/07,23:00,0.911,1.442,0.936,1.731,1.187,0.500,0.917,0.847,�k,2.5,��
2017/10/07,23:10,0.915,1.440,0.938,1.729,1.188,0.499,0.917,0.847,�k,3.9,��
2017/10/07,23:20,0.914,1.441,0.935,1.732,1.191,0.499,0.917,0.848,�k�k��,3.9,��
2017/10/07,23:30,0.912,1.440,0.936,1.731,1.186,0.498,0.920,0.847,�k,3.1,��
2017/10/07,23:40,0.912,1.443,0.936,1.730,1.187,0.500,0.918,0.847,�k�k��,3.7,��
2017/10/07,23:50,0.913,1.440,0.936,1.728,1.191,0.499,0.916,0.847,�k�k��,2.6,��
